Regional Weather Roundup
Issued by NWS

Home | Current Version | Previous Version | Text Only | Print | Product List | Glossary Off
Versions: 1 2 3 4 5 6 7 8 9 10 11 12 13 14 15 16 17 18 19 20 21 22 23 24 25 26 27 28 29 30 31 32 33 34 35 36 37 38 39 40 41 42 43 44 45 46 47 48 49 50

000
ASUS43 KFSD 200402
RWRSD

WEATHER ROUNDUP FOR SOUTH DAKOTA
NATIONAL WEATHER SERVICE SIOUX FALLS SD
1000 PM CST SUN FEB 19 2017

NOTE: "FAIR" INDICATES FEW OR NO CLOUDS BELOW 12,000 FEET WITH NO
SIGNIFICANT WEATHER AND/OR OBSTRUCTIONS TO VISIBILITY.


SDZ001>005-009-010-012>017-200500-
NORTHWEST AND NORTH CENTRAL SOUTH DAKOTA

CITY           SKY/WX    TMP DP  RH WIND       PRES   REMARKS
BUFFALO          N/A     46  37  71 NW9       29.48R
FAITH            N/A     52  37  56 SW9       29.53R
MOBRIDGE       PTCLDY    44  35  70 SE9       29.50S
$$

SDZ012>016-024>037-041>051-057-063-072>074-200500-
SOUTHWEST AND SOUTH CENTRAL SOUTH DAKOTA

CITY           SKY/WX    TMP DP  RH WIND       PRES   REMARKS
RAPID CTY ARPT CLOUDY    58  33  39 SW12      29.56S
PIERRE         CLOUDY    56  39  53 S7        29.55R
CUSTER         CLOUDY    44  33  65 SW6       29.63F
ELLSWORTH AFB  CLOUDY    56  33  42 VRB3      29.56S
PHILIP         MOCLDY    50  37  61 NW6       29.54R
PINE RIDGE     CLOUDY    46  36  68 S6        29.59R
SPEARFISH      FAIR      54  34  47 SW16G28   29.56S
WINNER         CLOUDY    61  45  55 S13       29.59S
$$

SDZ004>011-016>023-039-040-200500-
NORTHEAST SOUTH DAKOTA

CITY           SKY/WX    TMP DP  RH WIND       PRES   REMARKS
ABERDEEN       CLOUDY    53  46  77 S17       29.58R
WATERTOWN      CLOUDY    49  46  90 S14       29.67R
BROOKINGS      CLOUDY    53  47  79 SE17      29.70R
SISSETON         N/A     48  46  93 S10       29.63S
$$

SDZ017-020-022-023-036>040-048>070-200500-
SOUTHEAST SOUTH DAKOTA

CITY           SKY/WX    TMP DP  RH WIND       PRES   REMARKS
SIOUX FALLS    CLOUDY    57  50  77 S14       29.72R
HURON          CLOUDY    55  49  80 SE14      29.62S
CHAMBERLAIN    CLOUDY    56  46  70 SE9       29.59R
MITCHELL       MOCLDY    57  49  74 S17       29.65R
YANKTON        MOCLDY    57  48  72 S21G28    29.70R
$$

ABBREVIATIONS USED IN REMARKS
   TC - TEMPERATURE IN CELSIUS
  WCI - WIND CHILL INDEX
   HX - HEAT INDEX
  VSB - VISIBILITY




USA.gov is the U.S. government's official web portal to all federal, state and local government web resources and services.